SCP
0 0 0 0 0 0 0 0 0 0 0 0 0 0 1 0 0 0 0 0 0 0 0 0 0 0 0 0 0 0 0 0 0 0 0 0 0 0 0 0 0 0 0
0 0 0 0 0 0 0 0 0 0 0 1 0 0 0 0 0 0 0 0 0 0 0 0 0 0 0 0 0 0 0 0 0 0 0 0 0 0 0 0 0 0 0
0 0 0 0 0 0 0 0 0 0 0 0 0 0 0 0 0 0 0 0 0 0 0 0 0 0 0 0 0 0 0 0 0 0 0 0 0 0 0 0 0 0 0
0 0 0 0 0 0 0 0 0 0 0 0 0 0 0 0 0 0 0 0 0 0 0 0 0 0 0 0 0 0 0 0 0 0 0 0 0 0 0 0 0 0 0
0 0 0 0 0 0 -0 0 0 0 0 0 0 0 0 0 0 0 0 0 0 0 0 0 0 0 0 0 0 0 0 0 0 0 0 0 0 0 0 0 0 0 0
0 0 0 0 0 0 0 0 0 0 0 0 0 0 0 0 0 0 0 0 0 0 0 0 0 0 0 0 0 0 0 0 0 0 0 0 0 0 0 0 0 0 0
0 0 0 0 0 0 0 0 0 0 0 0 0 0 0 0 0 0 0 0 0 0 0 0 0 0 0 0 0 0 0 0 0 0 0 0 0 0 0 0 0 0 0
0 0 0 0 0 0 0 0 0 0 0 0 0 0 0 0 0 0 0 0 0 0 0 0 0 0 0 0 0 0 0 0 0 0 0 0 0 0 0 0 0 0 0
0 0 0 0 0 0 0 0 0 0 0 0 0 0 0 0 0 0 0 0 0 0 0 0 0 0 0 0 0 0 0 0 0 0 0 -0 -0 0 0 0 0 0 0
0 0 0 0 0 0 0 0 0 0 0 0 0 0 0 0 0 0 0 0 0 0 0 0 0 0 0 0 0 0 0 0 0 0 0 0 0 -0 -0 0 0 0 0
0 0 0 0 0 0 0 0 0 -0 0 0 0 0 0 0 0 0 0 0 0 0 0 0 0 0 0 0 0 0 0 0 0 -0 0 0 0 -0 -0 0 0 0 0
0 0 0 0 0 0 0 0 0 0 0 0 0 0 0 0 0 0 0 0 0 0 0 0 0 0 0 0 0 0 0 0 0 -0 -0 0 0 -0 0 0 -0 -0 0
0 0 0 0 0 0 0 0 0 0 0 0 -0 0 0 0 0 0 0 0 0 0 0 0 0 0 0 0 0 0 0 0 0 0 -0 -0 -0 0 0 0 0 0 0
0 0 0 0 0 0 -0 -0 0 0 -0 -0 0 0 0 0 0 0 0 0 0 0 0 0 0 0 0 0 0 0 0 0 0 0 -0 -0 0 0 0 0 0 0 0
0 0 0 0 0 0 -0 0 0 0 -0 0 0 0 0 0 0 0 0 0 0 0 0 -0 -0 -0 0 0 0 0 0 0 0 0 -0 -0 0 0 0 0 0 0 0
0 0 0 0 -0 -0 -0 0 0 -0 -0 0 0 0 0 0 0 0 0 0 0 0 0 -0 -0 -0 -0 0 -0 0 0 0 0 0 0 0 -0 0 0 0 0 0 0
0 0 0 0 0 -0 -0 -0 -0 -0 -0 -0 0 0 0 0 -0 0 0 0 0 0 0 0 -0 -0 -0 -0 -0 -0 0 0 0 0 0 0 0 0 0 0 0 0 0
0 0 0 0 0 0 -0 -0 -0 -0 -0 -0 0 0 -0 -0 -0 -0 -0 0 0 0 0 0 0 -0 -0 -0 -0 0 0 0 0 0 0 0 0 -0 0 0 0 0 0
0 0 0 0 0 0 -0 -0 -0 -0 -0 -0 -0 -0 -0 -0 -0 -0 -0 0 0 0 0 0 0 -0 -0 0 -0 -0 0 0 0 0 0 0 0 0 0 0 0 0 0
0 0 0 0 0 -0 0 -0 -0 0 0 0 -0 -0 -0 -0 -0 -0 -0 -0 0 0 0 0 0 0 -0 0 -0 -0 0 0 0 0 0 0 0 0 0 0 0 0 0
0 0 0 0 -0 0 0 0 0 0 0 0 -0 -0 -0 -0 -0 -0 0 -0 0 0 0 0 0 0 0 -0 0 -0 0 0 0 0 0 0 0 0 0 0 0 0 0
0 0 0 0 -0 0 0 -0 -0 -0 -0 -0 -0 -0 -0 -0 -0 -0 0 0 0 0 0 0 0 0 0 -0 0 -0 0 0 0 0 -0 0 0 0 0 0 0 0 0
0 0 0 0 0 0 0 -0 -0 -0 0 -0 -0 -0 -0 0 0 -0 -0 0 0 0 0 0 0 0 0 0 -0 0 0 -0 0 0 -0 -0 -0 -0 -0 -0 0 0 0
0 0 0 0 0 0 0 0 0 -0 -0 -0 0 0 0 0 0 0 -0 -0 0 0 0 0 0 0 0 0 0 0 0 0 0 0 0 0 0 0 -0 -0 -0 0 0
0 0 0 0 0 0 0 0 0 -0 0 -0 0 0 0 0 0 0 0 0 0 0 0 0 0 0 0 0 0 0 0 0 0 0 0 0 0 0 -0 0 0 -0 0
0 0 0 0 0 0 0 0 0 0 0 0 0 0 0 0 0 0 0 0 0 -0 -0 -0 0 0 0 -0 -0 0 -0 -0 0 0 -0 -0 -0 0 -0 0 -0 -0 -0
Wind_Speed_500mb
94 99 91 76 65 69 63 64 60 55 60 55 58 62 60 66 72 66 50 41 36 41 40 37 34 37 31 25 24 28 33 38 40 43 44 39 34 36 37 38 35 32 29
85 85 81 77 75 65 65 63 63 55 50 54 57 61 61 67 64 45 37 32 38 38 33 24 30 28 32 29 26 29 36 41 41 37 32 24 28 35 39 38 33 27 28
80 78 71 64 65 70 69 70 67 53 47 52 55 60 58 50 45 41 35 37 38 34 20 25 21 25 29 26 29 33 37 39 34 29 23 9 15 10 29 36 35 32 27
82 85 82 80 79 76 74 75 64 50 46 51 53 55 51 42 41 34 33 38 37 25 28 27 24 18 24 29 32 36 34 30 26 24 28 27 9 9 6 14 30 34 29
90 91 87 86 80 75 69 65 45 45 45 44 41 37 31 27 25 31 40 39 34 35 29 26 21 26 28 29 32 31 25 24 22 23 22 32 31 16 5 4 14 30 32
54 51 47 44 44 47 50 51 38 41 38 30 27 23 23 28 33 39 39 31 29 29 24 25 26 27 27 28 23 20 21 20 21 23 26 27 33 36 29 18 6 25 35
46 52 52 46 37 34 36 37 36 34 30 27 25 24 25 26 29 32 29 29 27 22 23 25 23 25 26 20 16 13 10 7 15 19 24 27 30 30 23 24 13 23 29
48 48 40 33 37 34 28 31 35 34 31 32 34 33 31 30 28 25 23 20 19 18 20 22 23 22 17 17 17 17 17 14 20 17 16 20 25 28 26 23 26 18 24
45 39 35 26 20 26 33 37 37 34 38 40 40 38 34 30 31 28 25 22 20 17 19 18 15 13 14 13 15 21 24 23 22 17 17 19 19 24 29 25 28 28 23
44 18 11 19 31 38 39 38 36 40 42 42 40 38 35 29 26 27 24 20 16 14 14 16 12 11 9 10 16 22 21 22 17 16 18 19 22 24 26 29 27 26 28
26 19 28 40 43 42 42 42 43 45 45 41 40 37 33 28 24 20 19 17 15 16 16 13 10 6 5 10 15 21 20 16 14 15 11 12 20 24 27 28 28 24 32
20 33 45 49 47 47 47 48 49 47 44 40 34 29 26 21 18 16 17 20 22 19 18 13 8 2 10 17 16 17 19 26 21 17 13 16 15 22 26 25 24 30 31
21 41 52 52 52 51 51 54 52 49 43 36 32 28 26 20 19 19 17 24 22 21 15 8 5 9 12 11 8 13 22 27 32 29 16 18 18 20 23 29 32 32 29
23 37 54 54 53 54 57 56 53 46 40 35 34 32 24 18 18 18 20 25 23 18 12 8 7 9 10 8 14 19 16 20 30 25 19 18 18 19 20 25 26 39 35
36 42 50 54 58 60 59 56 50 43 38 39 35 27 21 17 18 17 23 32 21 14 10 4 6 10 11 11 8 7 5 5 8 14 16 15 16 18 21 23 31 40 40
47 48 48 55 63 63 61 55 48 41 39 39 32 26 21 15 22 27 30 24 17 14 10 3 7 10 13 11 12 7 8 13 15 12 11 16 23 24 22 20 24 36 46
53 54 53 60 64 65 62 57 49 50 43 34 30 26 18 17 27 30 26 21 18 16 12 4 7 10 14 13 13 12 15 19 17 12 8 9 14 26 21 21 28 44 42
55 55 55 58 57 60 56 51 51 48 39 31 28 22 14 22 29 35 27 23 20 17 11 2 5 9 13 13 14 16 19 21 17 14 10 15 18 20 40 42 44 42 42
54 53 53 55 57 56 54 52 52 45 35 28 25 23 19 23 28 38 28 25 20 19 11 3 4 5 10 14 16 15 16 20 23 20 27 28 27 26 33 43 48 48 47
45 51 50 53 56 56 53 53 49 43 34 30 25 20 16 20 23 33 30 23 21 16 11 6 1 4 7 12 14 15 14 25 28 30 32 29 29 32 31 34 43 52 51
37 47 51 55 54 54 56 52 46 41 34 29 24 23 22 21 20 23 25 22 21 20 15 9 5 2 5 9 14 14 13 23 34 38 38 37 33 29 28 28 34 49 48
42 45 54 57 55 55 55 51 46 38 33 28 29 25 24 21 20 20 21 20 18 20 19 14 9 5 7 10 14 15 14 19 37 42 42 43 36 32 34 38 39 43 44
46 48 55 59 59 58 53 52 43 42 37 32 31 29 24 21 18 18 18 17 17 20 20 17 13 8 12 15 19 16 17 22 32 40 43 46 38 34 37 41 44 44 54
41 50 49 57 60 58 56 44 42 44 40 36 36 32 26 20 17 12 12 10 11 17 19 18 15 12 16 19 25 21 22 26 32 40 45 46 44 34 35 34 38 44 50
23 47 45 54 57 57 54 52 45 45 43 38 35 33 28 20 16 15 12 7 8 7 5 7 8 10 15 20 20 21 25 29 36 41 41 45 43 39 36 31 36 43 47
3 27 41 46 56 59 51 54 47 45 46 41 35 37 32 26 18 14 19 15 14 14 14 11 10 11 16 20 21 19 24 30 36 43 41 40 39 39 35 34 36 37 39
Wind_Direction_500mb
276 281 282 285 285 285 294 295 298 281 279 255 251 245 240 244 249 251 254 248 225 226 229 225 220 212 219 245 260 263 263 270 276 277 278 273 267 251 257 244 240 235 239
275 277 280 277 276 280 296 297 297 280 260 245 248 240 242 243 248 253 245 218 217 218 220 216 201 216 224 242 263 272 276 277 278 274 272 277 258 250 247 239 228 235 232
271 275 275 274 276 283 288 295 293 284 252 246 244 240 240 244 240 231 215 207 209 208 205 210 208 214 224 253 271 275 280 281 275 264 238 237 234 258 234 229 227 225 236
267 269 272 275 278 279 283 290 281 268 247 242 241 239 242 242 239 227 205 203 203 197 196 198 208 224 250 265 270 281 282 274 269 254 236 222 223 204 168 210 226 227 224
264 269 272 275 276 275 275 277 261 243 239 237 239 237 239 231 216 191 189 187 189 185 182 199 216 247 260 267 276 278 273 270 258 247 238 224 220 202 163 115 233 213 210
270 275 278 280 277 273 266 260 240 226 224 221 218 212 210 195 186 182 181 180 176 181 195 209 233 248 258 272 268 265 267 266 258 243 240 236 233 231 239 226 212 196 198
280 279 281 281 278 262 257 238 217 205 191 188 178 170 180 188 188 187 185 181 181 194 214 221 241 258 264 247 249 245 245 277 273 249 239 237 234 238 241 232 202 183 181
293 285 283 272 273 254 231 201 184 173 169 162 158 158 171 174 173 177 177 181 195 204 215 232 250 251 227 232 234 230 238 248 251 239 233 231 230 229 221 216 205 172 168
311 294 274 262 232 188 168 166 162 164 159 159 158 160 166 168 167 175 182 186 190 207 233 236 214 206 222 228 239 245 255 259 244 239 235 234 226 223 214 204 209 219 180
286 268 211 172 156 155 155 160 161 160 158 159 157 158 159 164 170 173 181 192 206 214 199 184 187 196 217 240 248 251 246 250 238 239 235 236 225 220 214 209 212 213 225
251 184 162 152 154 156 156 157 157 157 155 154 152 153 155 158 165 180 191 195 178 173 164 156 164 184 239 279 274 252 240 233 225 234 235 222 217 218 211 211 211 210 203
178 164 156 153 155 155 157 158 157 156 153 152 153 156 157 163 168 169 168 161 162 158 146 136 115 344 300 292 276 252 235 221 215 228 248 237 218 212 203 205 205 196 198
165 163 155 157 159 160 161 160 159 156 153 155 154 150 145 144 152 149 149 158 160 154 142 125 58 348 327 311 294 260 249 241 243 224 226 226 222 213 204 211 204 196 193
168 165 159 163 164 164 164 162 160 159 158 154 147 144 142 145 152 154 158 160 153 147 138 94 15 358 346 329 306 294 276 250 252 205 210 208 208 203 194 161 179 191 187
182 176 171 167 168 166 164 164 163 163 160 154 150 148 152 150 154 148 157 154 151 146 149 100 39 11 10 347 340 36 46 128 142 173 189 197 184 172 182 190 191 190 189
188 185 181 176 169 169 169 168 166 164 159 156 161 169 166 165 163 155 152 152 154 153 158 97 51 29 24 30 36 72 84 107 125 140 155 179 185 184 180 179 191 197 187
191 189 187 182 177 173 171 168 167 160 160 168 179 177 182 183 170 173 167 173 170 163 167 76 63 41 36 53 41 75 94 116 108 115 139 139 179 189 177 172 164 167 174
194 191 187 184 185 173 169 167 168 169 175 186 191 184 176 169 171 171 167 174 181 172 179 82 79 52 48 64 69 79 95 105 104 102 104 135 120 149 150 145 149 161 166
197 194 186 185 184 179 167 164 167 173 185 190 189 182 171 175 179 178 175 178 180 174 187 155 84 69 61 77 90 84 99 100 97 93 106 106 115 133 150 152 161 165 165
195 188 187 187 185 183 173 166 170 180 187 182 188 178 172 170 179 184 187 185 191 194 193 187 99 100 83 86 101 89 90 109 107 101 108 102 102 111 126 145 158 162 162
189 188 186 187 183 181 179 179 181 187 186 189 173 168 170 158 158 169 185 191 193 198 202 202 189 125 121 112 116 96 84 120 126 125 124 110 101 104 112 119 147 158 160
184 188 187 186 185 184 182 183 184 175 186 181 177 170 177 175 184 184 194 199 205 209 209 205 196 193 160 133 136 113 91 123 141 135 131 115 109 99 117 118 123 136 151
181 188 189 186 194 194 191 186 182 188 189 184 176 183 184 190 201 204 208 214 217 216 214 205 196 187 168 152 142 134 113 124 141 142 135 129 120 118 113 124 131 134 141
177 188 193 196 196 198 200 191 186 192 193 192 192 193 191 190 199 207 212 226 227 212 209 204 194 188 177 169 158 156 141 137 145 145 147 144 136 133 142 143 145 151 154
185 202 197 204 203 200 203 199 190 192 196 200 200 203 197 194 192 192 175 142 118 105 114 167 178 189 184 171 168 165 160 155 160 153 153 153 153 151 156 154 150 160 166
239 207 212 214 211 206 203 201 195 194 197 203 207 207 202 193 187 185 168 153 128 119 110 113 121 142 150 156 155 158 167 163 165 166 165 167 172 169 163 162 156 164 168
Wind_Speed_850mb
94 99 91 76 65 69 63 64 60 55 60 55 58 62 60 66 72 66 50 41 36 41 40 37 34 37 31 25 24 28 33 38 40 43 44 39 34 36 37 38 35 32 29
85 85 81 77 75 65 65 63 63 55 50 54 57 61 61 67 64 45 37 32 38 38 33 24 30 28 32 29 26 29 36 41 41 37 32 24 28 35 39 38 33 27 28
80 78 71 64 65 70 69 70 67 53 47 52 55 60 58 50 45 41 35 37 38 34 20 25 21 25 29 26 29 33 37 39 34 29 23 9 15 10 29 36 35 32 27
82 85 82 80 79 76 74 75 64 50 46 51 53 55 51 42 41 34 33 38 37 25 28 27 24 18 24 29 32 36 34 30 26 24 28 27 9 9 6 14 30 34 29
90 91 87 86 80 75 69 65 45 45 45 44 41 37 31 27 25 31 40 39 34 35 29 26 21 26 28 29 32 31 25 24 22 23 22 32 31 16 5 4 14 30 32
54 51 47 44 44 47 50 51 38 41 38 30 27 23 23 28 33 39 39 31 29 29 24 25 26 27 27 28 23 20 21 20 21 23 26 27 33 36 29 18 6 25 35
46 52 52 46 37 34 36 37 36 34 30 27 25 24 25 26 29 32 29 29 27 22 23 25 23 25 26 20 16 13 10 7 15 19 24 27 30 30 23 24 13 23 29
48 48 40 33 37 34 28 31 35 34 31 32 34 33 31 30 28 25 23 20 19 18 20 22 23 22 17 17 17 17 17 14 20 17 16 20 25 28 26 23 26 18 24
45 39 35 26 20 26 33 37 37 34 38 40 40 38 34 30 31 28 25 22 20 17 19 18 15 13 14 13 15 21 24 23 22 17 17 19 19 24 29 25 28 28 23
44 18 11 19 31 38 39 38 36 40 42 42 40 38 35 29 26 27 24 20 16 14 14 16 12 11 9 10 16 22 21 22 17 16 18 19 22 24 26 29 27 26 28
26 19 28 40 43 42 42 42 43 45 45 41 40 37 33 28 24 20 19 17 15 16 16 13 10 6 5 10 15 21 20 16 14 15 11 12 20 24 27 28 28 24 32
20 33 45 49 47 47 47 48 49 47 44 40 34 29 26 21 18 16 17 20 22 19 18 13 8 2 10 17 16 17 19 26 21 17 13 16 15 22 26 25 24 30 31
21 41 52 52 52 51 51 54 52 49 43 36 32 28 26 20 19 19 17 24 22 21 15 8 5 9 12 11 8 13 22 27 32 29 16 18 18 20 23 29 32 32 29
23 37 54 54 53 54 57 56 53 46 40 35 34 32 24 18 18 18 20 25 23 18 12 8 7 9 10 8 14 19 16 20 30 25 19 18 18 19 20 25 26 39 35
36 42 50 54 58 60 59 56 50 43 38 39 35 27 21 17 18 17 23 32 21 14 10 4 6 10 11 11 8 7 5 5 8 14 16 15 16 18 21 23 31 40 40
47 48 48 55 63 63 61 55 48 41 39 39 32 26 21 15 22 27 30 24 17 14 10 3 7 10 13 11 12 7 8 13 15 12 11 16 23 24 22 20 24 36 46
53 54 53 60 64 65 62 57 49 50 43 34 30 26 18 17 27 30 26 21 18 16 12 4 7 10 14 13 13 12 15 19 17 12 8 9 14 26 21 21 28 44 42
55 55 55 58 57 60 56 51 51 48 39 31 28 22 14 22 29 35 27 23 20 17 11 2 5 9 13 13 14 16 19 21 17 14 10 15 18 20 40 42 44 42 42
54 53 53 55 57 56 54 52 52 45 35 28 25 23 19 23 28 38 28 25 20 19 11 3 4 5 10 14 16 15 16 20 23 20 27 28 27 26 33 43 48 48 47
45 51 50 53 56 56 53 53 49 43 34 30 25 20 16 20 23 33 30 23 21 16 11 6 1 4 7 12 14 15 14 25 28 30 32 29 29 32 31 34 43 52 51
37 47 51 55 54 54 56 52 46 41 34 29 24 23 22 21 20 23 25 22 21 20 15 9 5 2 5 9 14 14 13 23 34 38 38 37 33 29 28 28 34 49 48
42 45 54 57 55 55 55 51 46 38 33 28 29 25 24 21 20 20 21 20 18 20 19 14 9 5 7 10 14 15 14 19 37 42 42 43 36 32 34 38 39 43 44
46 48 55 59 59 58 53 52 43 42 37 32 31 29 24 21 18 18 18 17 17 20 20 17 13 8 12 15 19 16 17 22 32 40 43 46 38 34 37 41 44 44 54
41 50 49 57 60 58 56 44 42 44 40 36 36 32 26 20 17 12 12 10 11 17 19 18 15 12 16 19 25 21 22 26 32 40 45 46 44 34 35 34 38 44 50
23 47 45 54 57 57 54 52 45 45 43 38 35 33 28 20 16 15 12 7 8 7 5 7 8 10 15 20 20 21 25 29 36 41 41 45 43 39 36 31 36 43 47
3 27 41 46 56 59 51 54 47 45 46 41 35 37 32 26 18 14 19 15 14 14 14 11 10 11 16 20 21 19 24 30 36 43 41 40 39 39 35 34 36 37 39
Wind_Direction_850mb
276 281 282 285 285 285 294 295 298 281 279 255 251 245 240 244 249 251 254 248 225 226 229 225 220 212 219 245 260 263 263 270 276 277 278 273 267 251 257 244 240 235 239
275 277 280 277 276 280 296 297 297 280 260 245 248 240 242 243 248 253 245 218 217 218 220 216 201 216 224 242 263 272 276 277 278 274 272 277 258 250 247 239 228 235 232
271 275 275 274 276 283 288 295 293 284 252 246 244 240 240 244 240 231 215 207 209 208 205 210 208 214 224 253 271 275 280 281 275 264 238 237 234 258 234 229 227 225 236
267 269 272 275 278 279 283 290 281 268 247 242 241 239 242 242 239 227 205 203 203 197 196 198 208 224 250 265 270 281 282 274 269 254 236 222 223 204 168 210 226 227 224
264 269 272 275 276 275 275 277 261 243 239 237 239 237 239 231 216 191 189 187 189 185 182 199 216 247 260 267 276 278 273 270 258 247 238 224 220 202 163 115 233 213 210
270 275 278 280 277 273 266 260 240 226 224 221 218 212 210 195 186 182 181 180 176 181 195 209 233 248 258 272 268 265 267 266 258 243 240 236 233 231 239 226 212 196 198
280 279 281 281 278 262 257 238 217 205 191 188 178 170 180 188 188 187 185 181 181 194 214 221 241 258 264 247 249 245 245 277 273 249 239 237 234 238 241 232 202 183 181
293 285 283 272 273 254 231 201 184 173 169 162 158 158 171 174 173 177 177 181 195 204 215 232 250 251 227 232 234 230 238 248 251 239 233 231 230 229 221 216 205 172 168
311 294 274 262 232 188 168 166 162 164 159 159 158 160 166 168 167 175 182 186 190 207 233 236 214 206 222 228 239 245 255 259 244 239 235 234 226 223 214 204 209 219 180
286 268 211 172 156 155 155 160 161 160 158 159 157 158 159 164 170 173 181 192 206 214 199 184 187 196 217 240 248 251 246 250 238 239 235 236 225 220 214 209 212 213 225
251 184 162 152 154 156 156 157 157 157 155 154 152 153 155 158 165 180 191 195 178 173 164 156 164 184 239 279 274 252 240 233 225 234 235 222 217 218 211 211 211 210 203
178 164 156 153 155 155 157 158 157 156 153 152 153 156 157 163 168 169 168 161 162 158 146 136 115 344 300 292 276 252 235 221 215 228 248 237 218 212 203 205 205 196 198
165 163 155 157 159 160 161 160 159 156 153 155 154 150 145 144 152 149 149 158 160 154 142 125 58 348 327 311 294 260 249 241 243 224 226 226 222 213 204 211 204 196 193
168 165 159 163 164 164 164 162 160 159 158 154 147 144 142 145 152 154 158 160 153 147 138 94 15 358 346 329 306 294 276 250 252 205 210 208 208 203 194 161 179 191 187
182 176 171 167 168 166 164 164 163 163 160 154 150 148 152 150 154 148 157 154 151 146 149 100 39 11 10 347 340 36 46 128 142 173 189 197 184 172 182 190 191 190 189
188 185 181 176 169 169 169 168 166 164 159 156 161 169 166 165 163 155 152 152 154 153 158 97 51 29 24 30 36 72 84 107 125 140 155 179 185 184 180 179 191 197 187
191 189 187 182 177 173 171 168 167 160 160 168 179 177 182 183 170 173 167 173 170 163 167 76 63 41 36 53 41 75 94 116 108 115 139 139 179 189 177 172 164 167 174
194 191 187 184 185 173 169 167 168 169 175 186 191 184 176 169 171 171 167 174 181 172 179 82 79 52 48 64 69 79 95 105 104 102 104 135 120 149 150 145 149 161 166
197 194 186 185 184 179 167 164 167 173 185 190 189 182 171 175 179 178 175 178 180 174 187 155 84 69 61 77 90 84 99 100 97 93 106 106 115 133 150 152 161 165 165
195 188 187 187 185 183 173 166 170 180 187 182 188 178 172 170 179 184 187 185 191 194 193 187 99 100 83 86 101 89 90 109 107 101 108 102 102 111 126 145 158 162 162
189 188 186 187 183 181 179 179 181 187 186 189 173 168 170 158 158 169 185 191 193 198 202 202 189 125 121 112 116 96 84 120 126 125 124 110 101 104 112 119 147 158 160
184 188 187 186 185 184 182 183 184 175 186 181 177 170 177 175 184 184 194 199 205 209 209 205 196 193 160 133 136 113 91 123 141 135 131 115 109 99 117 118 123 136 151
181 188 189 186 194 194 191 186 182 188 189 184 176 183 184 190 201 204 208 214 217 216 214 205 196 187 168 152 142 134 113 124 141 142 135 129 120 118 113 124 131 134 141
177 188 193 196 196 198 200 191 186 192 193 192 192 193 191 190 199 207 212 226 227 212 209 204 194 188 177 169 158 156 141 137 145 145 147 144 136 133 142 143 145 151 154
185 202 197 204 203 200 203 199 190 192 196 200 200 203 197 194 192 192 175 142 118 105 114 167 178 189 184 171 168 165 160 155 160 153 153 153 153 151 156 154 150 160 166
239 207 212 214 211 206 203 201 195 194 197 203 207 207 202 193 187 185 168 153 128 119 110 113 121 142 150 156 155 158 167 163 165 166 165 167 172 169 163 162 156 164 168